Location: *
(48.8780°N, 19.2358°E)
Time: 18:32:12
(UTC+00:00)

Cosmos 1000 Rocket - Pass Details

Date: 18 October 2019
Orbit: 955 x 991 km, 82.9° (Epoch: 20 November)

Event Time Altitude Azimuth Distance (km) Brightness Sun altitude
Rises 18:11:53 0° 182° (S) 3,634 7.4 -24.2°
Reaches altitude 10° 18:14:22 10° 181° (S) 2,696 6.7 -24.6°
Maximum altitude 18:20:32 78° 96° (E) 997 4.3 -25.6°
Drops below altitude 10° 18:26:48 10° 12° (NNE) 2,740 6.9 -26.6°
Sets 18:29:20 0° 11° (N) 3,697 7.6 -27.0°
